[[{"header":{"parameterUnit":"m.s-1","parameterCategory":1,"la1":30.2991,"la2":30.254,"lo1":-89.0895,"lo2":-89.0444,"dy":0.0017,"dx":0.0017,"nx":28,"ny":28,"refTime":"2024-08-13T21:00:00:Z","depth":0,"parameterNumber":2,"parameterNumberName":"U-component_of_WINDS"},"data":[0,0,0,0,0,0,0,0,0,0,0,0,0,0,0,0,0,0,0,0,0,0,0,0,0,0,0,0,0,0,0,0,0,0,0,0,0,0,0,0,0,0,0,0,0,0,0,0,0,0,0,0,0,0,0,0,0,0,0.6182,0.618,0,0.5939,0.5937,0.5934,0.5784,0.5783,0.5782,0.5781,0.553,0.5525,0.5519,0,0,0,0,0,0,0,0,0,0,0,0,0,0.6515,0.651,0.6182,0.6179,0.6176,0.594,0.5937,0.5933,0.5784,0.5783,0.5782,0.5781,0.5532,0.5525,0.5518,0,0,0,0,0,0,0,0,0,0,0,0,0,0.6332,0.6508,0.6183,0.6073,0.6061,0.5941,0.5936,0.5932,0.5784,0.5783,0.5782,0.578,0.5535,0.5526,0.5517,0.5486,0,0,0.549,0.5486,0,0,0,0,0,0,0,0,0.6342,0.632,0.6092,0.6081,0.6067,0.5891,0.5962,0.5783,0.5784,0.5889,0.5781,0.578,0.5651,0.5633,0.559,0.5475,0.5464,0.5489,0.5484,0.548,0.5478,0,0,0,0,0,0,0,0.6355,0.6329,0.6086,0.6089,0.6074,0.6036,0.6008,0.5927,0.578,0.588,0.5868,0.5842,0.5644,0.5599,0.5583,0.546,0.549,0.5482,0.5476,0.5473,0.5309,0.531,0,0,0,0,0,0,0.6386,0.6341,0.6094,0.6079,0.6204,0.6031,0.6,0.5948,0.578,0.5753,0.5843,0.5836,0.5614,0.5593,0.5573,0.5527,0.548,0.5472,0.5467,0.5308,0.531,0.5311,0,0,0,0,0,0,0.6393,0.6365,0.6104,0.6207,0.617,0.6026,0.5969,0.5944,0.5899,0.5752,0.5725,0.5824,0.5613,0.5586,0.551,0.5517,0.5468,0.546,0.5307,0.5309,0.531,0.5435,0,0,0,0,0,0,0.6404,0.6369,0.6356,0.6207,0.6166,0.6045,0.597,0.594,0.5884,0.5872,0.5727,0.5702,0.561,0.5524,0.5501,0.5503,0.5453,0.5306,0.5308,0.531,0.543,0.5441,0.545,0,0,0,0,0,0.6416,0.6399,0.6356,0.6327,0.6146,0.6046,0.6021,0.5916,0.5885,0.5871,0.5777,0.5707,0.552,0.5517,0.549,0.549,0.5305,0.5307,0.531,0.5425,0.5439,0.545,0,0,0,0,0,0,0.6551,0.6378,0.6327,0.6263,0.617,0.602,0.5999,0.5933,0.5847,0.5839,0.5711,0.568,0.5617,0.5545,0.5546,0.5452,0.5404,0.5401,0.5502,0.5513,0.5523,0.5542,0.5445,0,0,0,0,0,0.6573,0.6506,0.6358,0.6316,0.6272,0.6144,0.6096,0.6023,0.5922,0.5881,0.5782,0.5686,0.5605,0.5555,0.5472,0.5419,0.5386,0.5405,0.5416,0.5425,0.5424,0.5392,0.5399,0.5318,0.5318,0.5318,0,0,0.6618,0.6516,0.6481,0.634,0.626,0.6194,0.6112,0.6045,0.5994,0.5871,0.5794,0.5718,0.5602,0.5538,0.5504,0.5476,0.5439,0.5427,0.5436,0.543,0.5395,0.5403,0.541,0.532,0.5319,0.5319,0,0,0.6667,0.6582,0.6538,0.646,0.634,0.6255,0.6245,0.6105,0.6051,0.5972,0.5878,0.5816,0.568,0.5602,0.5544,0.5566,0.5499,0.5543,0.5596,0.5567,0.5573,0.5578,0.5588,0.5593,0.5542,0.5542,0.5543,0,0.6738,0.6635,0.6524,0.6463,0.6404,0.6291,0.6246,0.6174,0.6034,0.5996,0.5967,0.5795,0.5708,0.5625,0.5631,0.5588,0.5573,0.5559,0.5581,0.5585,0.5588,0.5596,0.56,0.5549,0.5548,0.5547,0.5547,0,0.6729,0.666,0.6638,0.6507,0.6446,0.6393,0.6274,0.6225,0.6158,0.6077,0.5999,0.5892,0.5787,0.5761,0.5694,0.5669,0.5656,0.5606,0.5555,0.5604,0.561,0.5611,0.5558,0.5555,0.5554,0.5552,0,0,0.6855,0.6665,0.6659,0.6599,0.646,0.6403,0.6346,0.6245,0.6206,0.6113,0.6063,0.5951,0.5904,0.5839,0.5762,0.5736,0.5763,0.5689,0.5684,0.5708,0.5731,0.5771,0.5776,0.5717,0.5717,0.5717,0.5741,0,0.6885,0.6777,0.6676,0.6605,0.654,0.6432,0.6382,0.6292,0.6215,0.6148,0.6061,0.5986,0.5929,0.5889,0.5859,0.5767,0.5766,0.5763,0.5669,0.5668,0.5704,0.5778,0.582,0.5848,0.5742,0.5743,0.5743,0,0.6905,0.6819,0.6742,0.6611,0.658,0.6537,0.6437,0.6374,0.6269,0.6215,0.6144,0.6064,0.5998,0.5955,0.5863,0.5864,0.5819,0.5768,0.5767,0.5755,0.571,0.5771,0.5854,0.5859,0.5744,0.5744,0.5744,0,0.7007,0.6872,0.6809,0.6761,0.6605,0.6578,0.6512,0.6406,0.6352,0.6264,0.6229,0.6134,0.6083,0.6012,0.5908,0.5885,0.5828,0.5775,0.5782,0.5785,0.5776,0.5778,0.5856,0.5745,0.5745,0.5745,0.5745,0,0.7052,0.7009,0.6853,0.6815,0.6765,0.6649,0.6602,0.6526,0.6433,0.6378,0.6278,0.6229,0.6094,0.6028,0.5946,0.5885,0.5861,0.5816,0.5795,0.5826,0.5833,0.5796,0.5793,0.5746,0.5746,0.5746,0.5745,0,0.7158,0.7052,0.6976,0.6836,0.68,0.677,0.6649,0.6608,0.6526,0.6458,0.6435,0.6306,0.6224,0.6113,0.5996,0.5941,0.589,0.5856,0.5927,0.5914,0.5928,0.593,0.5986,0.5989,0.5877,0.5878,0.5879,0,0.7194,0.716,0.7017,0.6974,0.6911,0.6842,0.6788,0.6672,0.662,0.6499,0.6473,0.6383,0.6305,0.6179,0.6074,0.5985,0.5949,0.5975,0.5935,0.5968,0.5952,0.5956,0.5953,0.5986,0.5987,0.5989,0.599,0,0.7271,0.722,0.7146,0.7054,0.6992,0.6914,0.683,0.68,0.6668,0.6613,0.6529,0.6469,0.6351,0.6264,0.6161,0.6091,0.602,0.6003,0.6001,0.6033,0.6076,0.6055,0.5956,0.6003,0.6002,0.6001,0.6,0.5999,0.7344,0.7309,0.7204,0.7125,0.7051,0.6976,0.6931,0.6844,0.6772,0.6668,0.6604,0.6523,0.642,0.6274,0.6209,0.6144,0.6115,0.6111,0.611,0.6111,0.6122,0.6086,0.6124,0.6124,0.6123,0.6123,0.6122,0,0.7417,0.7345,0.7273,0.7161,0.71,0.7038,0.6943,0.6896,0.6826,0.6736,0.6663,0.6567,0.6483,0.6372,0.628,0.6249,0.6214,0.6229,0.6231,0.6217,0.6152,0.6165,0.6259,0.6259,0.6259,0.6259,0.6259,0.6259,0.7448,0.7387,0.7325,0.7226,0.7153,0.7074,0.7026,0.6956,0.6885,0.6783,0.6713,0.6642,0.6544,0.6444,0.6364,0.6333,0.6305,0.6331,0.6291,0.6233,0.6221,0.6209,0.6221,0.6325,0.6325,0.636,0.6361,0.6361]},{"header":{"parameterUnit":"m.s-1","parameterCategory":1,"la1":30.2991,"la2":30.254,"lo1":-89.0895,"lo2":-89.0444,"dy":0.0017,"dx":0.0017,"nx":28,"ny":28,"refTime":"2024-08-13T21:00:00:Z","depth":0,"parameterNumber":3,"parameterNumberName":"V-component_of_WINDS"},"data":[0,0,0,0,0,0,0,0,0,0,0,0,0,0,0,0,0,0,0,0,0,0,0,0,0,0,0,0,0,0,0,0,0,0,0,0,0,0,0,0,0,0,0,0,0,0,0,0,0,0,0,0,0,0,0,0,0,0,-1.0666,-1.0663,0,-1.0437,-1.0434,-1.0432,-1.0292,-1.0291,-1.0291,-1.029,-1.005,-1.0045,-1.0039,0,0,0,0,0,0,0,0,0,0,0,0,0,-1.0979,-1.0974,-1.0666,-1.0663,-1.066,-1.0437,-1.0434,-1.0431,-1.0292,-1.0291,-1.029,-1.029,-1.0052,-1.0045,-1.0038,0,0,0,0,0,0,0,0,0,0,0,0,0,-1.0806,-1.0973,-1.0666,-1.0564,-1.0553,-1.0438,-1.0434,-1.043,-1.0292,-1.0291,-1.029,-1.0289,-1.0054,-1.0046,-1.0037,-1.0005,0,0,-1.0011,-1.0007,0,0,0,0,0,0,0,0,-1.0816,-1.0795,-1.0582,-1.0571,-1.0558,-1.0392,-1.0457,-1.0287,-1.0293,-1.0391,-1.029,-1.0289,-1.0164,-1.0147,-1.0106,-0.9994,-0.9984,-1.001,-1.0005,-1.0001,-0.9999,0,0,0,0,0,0,0,-1.0828,-1.0804,-1.0575,-1.0579,-1.0564,-1.0529,-1.0503,-1.0424,-1.0286,-1.0382,-1.0372,-1.0347,-1.0158,-1.0115,-1.0099,-0.998,-1.0011,-1.0003,-0.9998,-0.9994,-0.9833,-0.9834,0,0,0,0,0,0,-1.0857,-1.0815,-1.0582,-1.0568,-1.0687,-1.0524,-1.0495,-1.0446,-1.0287,-1.0261,-1.0348,-1.0341,-1.013,-1.0109,-1.009,-1.0043,-1.0002,-0.9993,-0.9989,-0.9832,-0.9833,-0.9834,0,0,0,0,0,0,-1.0864,-1.0838,-1.0591,-1.0688,-1.0654,-1.052,-1.0466,-1.0442,-1.0399,-1.0261,-1.0235,-1.0329,-1.0128,-1.0102,-1.0028,-1.0033,-0.999,-0.9982,-0.9831,-0.9832,-0.9833,-0.9949,0,0,0,0,0,0,-1.0874,-1.0841,-1.0828,-1.0689,-1.065,-1.0535,-1.0466,-1.0439,-1.0385,-1.0374,-1.0237,-1.0213,-1.0125,-1.0042,-1.002,-1.002,-0.9975,-0.983,-0.9831,-0.9833,-0.9944,-0.9954,-0.9962,0,0,0,0,0,-1.0886,-1.0867,-1.0828,-1.08,-1.0631,-1.0535,-1.0512,-1.0414,-1.0386,-1.0371,-1.0283,-1.0217,-1.0037,-1.0036,-1.0009,-1.0007,-0.9829,-0.9831,-0.9833,-0.994,-0.9952,-0.9962,0,0,0,0,0,0,-1.1006,-1.0847,-1.0801,-1.0738,-1.0652,-1.0512,-1.049,-1.0429,-1.0347,-1.034,-1.022,-1.019,-1.0128,-1.006,-1.0062,-0.9969,-0.9925,-0.9922,-1.0016,-1.0026,-1.0035,-1.0052,-0.9968,0,0,0,0,0,-1.1027,-1.0964,-1.0827,-1.0784,-1.0744,-1.0625,-1.0579,-1.0512,-1.0416,-1.0378,-1.0284,-1.0193,-1.0116,-1.0067,-0.9988,-0.9934,-0.9903,-0.992,-0.993,-0.9938,-0.9936,-0.9904,-0.9911,-0.984,-0.984,-0.984,0,0,-1.1065,-1.0971,-1.0938,-1.0807,-1.0731,-1.0669,-1.0595,-1.053,-1.0482,-1.0367,-1.0293,-1.0222,-1.0112,-1.0049,-1.0016,-0.999,-0.9949,-0.994,-0.9948,-0.9941,-0.9907,-0.9914,-0.992,-0.9842,-0.9841,-0.9841,0,0,-1.1105,-1.1027,-1.0984,-1.0912,-1.08,-1.0722,-1.0713,-1.0582,-1.0531,-1.0455,-1.0369,-1.031,-1.0179,-1.0105,-1.0051,-1.0068,-1.0004,-1.0045,-1.0093,-1.0064,-1.0069,-1.0074,-1.0081,-1.0085,-1.0044,-1.0045,-1.0045,0,-1.1167,-1.107,-1.0969,-1.0911,-1.0856,-1.0754,-1.0709,-1.0643,-1.0511,-1.0476,-1.0449,-1.0286,-1.0204,-1.0124,-1.0129,-1.0087,-1.0072,-1.006,-1.0077,-1.008,-1.0083,-1.0088,-1.0091,-1.005,-1.005,-1.0049,-1.0049,0,-1.1152,-1.1087,-1.1065,-1.0944,-1.0887,-1.0836,-1.0728,-1.0682,-1.0621,-1.0546,-1.0471,-1.037,-1.0271,-1.0247,-1.0184,-1.0158,-1.0146,-1.01,-1.0053,-1.0097,-1.01,-1.0101,-1.0059,-1.0057,-1.0055,-1.0054,0,0,-1.1257,-1.1085,-1.1079,-1.1024,-1.0896,-1.0843,-1.0788,-1.0694,-1.0658,-1.0571,-1.0522,-1.0417,-1.0375,-1.0313,-1.0242,-1.0217,-1.0239,-1.0174,-1.017,-1.019,-1.0205,-1.024,-1.0244,-1.0197,-1.0197,-1.0197,-1.0215,0,-1.1277,-1.1176,-1.1086,-1.1017,-1.0956,-1.086,-1.0813,-1.073,-1.0659,-1.0596,-1.0517,-1.0445,-1.0395,-1.0358,-1.0328,-1.0243,-1.024,-1.024,-1.015,-1.0148,-1.018,-1.0245,-1.0281,-1.0302,-1.0215,-1.0215,-1.0215,0,-1.1286,-1.1208,-1.1135,-1.1017,-1.0987,-1.0947,-1.0855,-1.0796,-1.07,-1.0651,-1.0585,-1.0512,-1.045,-1.0412,-1.0325,-1.0328,-1.0286,-1.0239,-1.0237,-1.0224,-1.0184,-1.0234,-1.0306,-1.031,-1.0216,-1.0216,-1.0216,0,-1.1372,-1.1248,-1.1188,-1.1144,-1.1004,-1.0979,-1.0919,-1.0822,-1.0772,-1.0691,-1.0658,-1.0571,-1.0523,-1.0457,-1.0362,-1.0343,-1.0286,-1.0239,-1.0243,-1.0245,-1.0233,-1.0235,-1.03,-1.0208,-1.0208,-1.0208,-1.0208,0,-1.1403,-1.1362,-1.1225,-1.1189,-1.114,-1.1038,-1.0992,-1.0924,-1.084,-1.0788,-1.0699,-1.0652,-1.0531,-1.0469,-1.0395,-1.0336,-1.0314,-1.0272,-1.0253,-1.028,-1.0285,-1.025,-1.0246,-1.0209,-1.0208,-1.0208,-1.0208,0,-1.1489,-1.1395,-1.1325,-1.1201,-1.1168,-1.1139,-1.1031,-1.0992,-1.0919,-1.0855,-1.0834,-1.0718,-1.0641,-1.0541,-1.0432,-1.0383,-1.0332,-1.0302,-1.0365,-1.0354,-1.0363,-1.0364,-1.0407,-1.0408,-1.0317,-1.0318,-1.0319,0,-1.1515,-1.1481,-1.1355,-1.1316,-1.126,-1.1197,-1.1147,-1.1046,-1.0997,-1.0889,-1.0863,-1.0781,-1.0709,-1.0592,-1.0497,-1.0414,-1.0381,-1.0402,-1.0367,-1.0397,-1.0381,-1.0385,-1.0381,-1.041,-1.0411,-1.0413,-1.0414,0,-1.1571,-1.1528,-1.146,-1.1378,-1.1322,-1.1252,-1.1177,-1.1149,-1.1033,-1.0983,-1.0906,-1.0851,-1.0742,-1.0662,-1.0568,-1.0504,-1.044,-1.0426,-1.0422,-1.0449,-1.0488,-1.0468,-1.0389,-1.0425,-1.0424,-1.0423,-1.0422,-1.0422,-1.1627,-1.1594,-1.1502,-1.1431,-1.1365,-1.1299,-1.1257,-1.1181,-1.1115,-1.1021,-1.0965,-1.089,-1.0798,-1.0665,-1.0606,-1.0545,-1.052,-1.0515,-1.0513,-1.0513,-1.0523,-1.0499,-1.0527,-1.0527,-1.0527,-1.0526,-1.0526,0,-1.1679,-1.1616,-1.1552,-1.1453,-1.1398,-1.1346,-1.1261,-1.1218,-1.1154,-1.1075,-1.1008,-1.0921,-1.0843,-1.0745,-1.0661,-1.0632,-1.06,-1.0613,-1.0613,-1.06,-1.0549,-1.0561,-1.064,-1.064,-1.064,-1.064,-1.064,-1.064,-1.1699,-1.1642,-1.1589,-1.1499,-1.1436,-1.1364,-1.1321,-1.126,-1.1196,-1.1104,-1.104,-1.0978,-1.0891,-1.08,-1.0727,-1.07,-1.0673,-1.0696,-1.066,-1.0614,-1.0603,-1.0594,-1.0604,-1.0691,-1.0691,-1.0715,-1.0715,-1.0715]}]]